EWG39C EDDL-GCRR

Flight info

Callsign EWG39C
Flight time 4h 6m
Altitude 38000
Route MODR7Z MODRU Z283 LNO RASCA FAMEN AHVEC RESMI DEKOD DISAK ARKIP ARNAV LMG UVELI OSMOB VAVIX BTZ URUNA SSN VRA NEA L14 ADINO RAKOD ELVAR TAKAV VEDOD UN857 TERTO TERT1P
Aircraft A320/M-SDE3FGHIRWY/2200

Departure

Time 2026-05-01 09:08
Airport Düsseldorf Airport (EDDL)

Arrival

Time 2026-05-01 13:15
Airport César Manrique-Lanzarote Airport (GCRR)
Time Latitude Longitude Altitude Speed Heading
2026-05-01 08:28 51.28108 6.76544 125 ft 0 kts 96°
2026-05-01 08:30 51.28108 6.76545 118 ft 0 kts 95°
2026-05-01 08:59 51.28108 6.76541 114 ft 3 kts 95°
2026-05-01 09:00 51.28112 6.76499 116 ft 4 kts 101°
2026-05-01 09:00 51.28118 6.76457 115 ft 4 kts 114°
2026-05-01 09:00 51.28133 6.76425 114 ft 4 kts 162°
2026-05-01 09:00 51.28141 6.76421 114 ft 0 kts 186°
2026-05-01 09:03 51.28132 6.76402 115 ft 5 kts 258°
2026-05-01 09:03 51.28141 6.76324 118 ft 7 kts 296°
2026-05-01 09:03 51.28182 6.76258 116 ft 9 kts 321°
2026-05-01 09:03 51.28186 6.76140 114 ft 12 kts 240°
2026-05-01 09:04 51.28132 6.76026 117 ft 14 kts 232°
2026-05-01 09:04 51.28075 6.75905 116 ft 13 kts 233°
2026-05-01 09:04 51.28023 6.75796 114 ft 11 kts 232°
2026-05-01 09:04 51.27981 6.75709 116 ft 10 kts 233°
2026-05-01 09:05 51.27941 6.75624 116 ft 11 kts 233°
2026-05-01 09:05 51.27894 6.75525 115 ft 11 kts 233°
2026-05-01 09:05 51.27853 6.75438 116 ft 9 kts 233°
2026-05-01 09:05 51.27857 6.75342 116 ft 9 kts 315°
2026-05-01 09:06 51.27888 6.75313 117 ft 0 kts 332°
2026-05-01 09:06 51.27892 6.75309 117 ft 1 kts 331°
2026-05-01 09:06 51.27904 6.75299 116 ft 3 kts 331°
2026-05-01 09:06 51.27932 6.75277 115 ft 8 kts 337°
2026-05-01 09:07 51.27991 6.75282 115 ft 9 kts 26°
2026-05-01 09:07 51.28030 6.75344 115 ft 7 kts 51°
2026-05-01 09:07 51.28063 6.75411 113 ft 15 kts 53°
2026-05-01 09:07 51.28284 6.75882 113 ft 91 kts 53°
2026-05-01 09:08 51.28808 6.76987 115 ft 155 kts 53°
2026-05-01 09:08 51.29574 6.78551 237 ft 191 kts 53°
2026-05-01 09:08 51.30417 6.80133 822 ft 187 kts 56°
2026-05-01 09:08 51.31215 6.81809 1338 ft 193 kts 57°
2026-05-01 09:09 51.32043 6.83608 1865 ft 202 kts 59°
2026-05-01 09:09 51.32883 6.85433 2364 ft 212 kts 59°
2026-05-01 09:09 51.33768 6.87384 2874 ft 222 kts 62°
2026-05-01 09:09 51.34733 6.89415 3406 ft 239 kts 50°
2026-05-01 09:10 51.36231 6.90777 3904 ft 264 kts 18°
2026-05-01 09:10 51.38088 6.91349 4416 ft 279 kts 13°
2026-05-01 09:10 51.40058 6.91869 4947 ft 286 kts 12°
2026-05-01 09:10 51.41994 6.92358 5441 ft 286 kts 12°
2026-05-01 09:11 51.43965 6.92857 5948 ft 287 kts 12°
2026-05-01 09:11 51.45946 6.93264 6453 ft 289 kts
2026-05-01 09:11 51.47939 6.92738 6951 ft 295 kts 341°
2026-05-01 09:11 51.49725 6.91105 7428 ft 299 kts 319°
2026-05-01 09:12 51.51051 6.88540 7921 ft 301 kts 297°
2026-05-01 09:12 51.51866 6.85443 8421 ft 302 kts 289°
2026-05-01 09:12 51.52617 6.82277 8922 ft 304 kts 289°
2026-05-01 09:12 51.53377 6.79057 9447 ft 307 kts 289°
2026-05-01 09:13 51.54142 6.75831 9970 ft 309 kts 289°
2026-05-01 09:13 51.54842 6.72550 10469 ft 311 kts 281°
2026-05-01 09:13 51.55164 6.69097 10949 ft 317 kts 269°
2026-05-01 09:13 51.55057 6.65531 11446 ft 324 kts 258°
2026-05-01 09:14 51.54511 6.62044 11934 ft 330 kts 246°
2026-05-01 09:14 51.53510 6.58618 12443 ft 337 kts 239°
2026-05-01 09:14 51.52410 6.55245 12949 ft 346 kts 239°
2026-05-01 09:14 51.51300 6.51831 13466 ft 353 kts 239°
2026-05-01 09:15 51.50141 6.48258 14004 ft 360 kts 239°
2026-05-01 09:15 51.48975 6.44658 14489 ft 367 kts 240°
2026-05-01 09:15 51.47778 6.41005 14968 ft 371 kts 237°
2026-05-01 09:15 51.46275 6.37644 15455 ft 373 kts 225°
2026-05-01 09:16 51.44364 6.34834 15947 ft 374 kts 213°
2026-05-01 09:16 51.42132 6.32700 16450 ft 374 kts 201°
2026-05-01 09:16 51.39695 6.31199 16955 ft 377 kts 197°
2026-05-01 09:17 51.34724 6.28295 17997 ft 383 kts 198°
2026-05-01 09:17 51.32221 6.26818 18540 ft 385 kts 198°
2026-05-01 09:17 51.28002 6.24322 19222 ft 392 kts 198°
2026-05-01 09:18 51.25434 6.22812 19625 ft 395 kts 198°
2026-05-01 09:18 51.20220 6.19760 20394 ft 404 kts 198°
2026-05-01 09:19 51.14890 6.16646 21115 ft 411 kts 198°
2026-05-01 09:19 51.12196 6.15077 21506 ft 414 kts 198°
2026-05-01 09:19 51.09490 6.13503 21892 ft 417 kts 198°
2026-05-01 09:20 51.03995 6.10316 22687 ft 422 kts 198°
2026-05-01 09:20 50.98751 6.06044 23491 ft 428 kts 211°
2026-05-01 09:21 50.93677 6.01019 24253 ft 431 kts 210°
2026-05-01 09:21 50.91083 5.98642 24597 ft 432 kts 208°
2026-05-01 09:21 50.85759 5.94186 25313 ft 433 kts 206°
2026-05-01 09:22 50.80398 5.89811 26012 ft 434 kts 207°
2026-05-01 09:22 50.75084 5.85284 26772 ft 434 kts 208°
2026-05-01 09:23 50.72436 5.82977 27153 ft 434 kts 208°
2026-05-01 09:23 50.67152 5.78366 27887 ft 435 kts 207°
2026-05-01 09:24 50.61835 5.73804 28573 ft 436 kts 208°
2026-05-01 09:24 50.59299 5.71175 28932 ft 438 kts 217°
2026-05-01 09:24 50.55058 5.64301 29657 ft 439 kts 230°
2026-05-01 09:25 50.51180 5.56871 30382 ft 440 kts 229°
2026-05-01 09:25 50.47270 5.49468 30925 ft 441 kts 229°
2026-05-01 09:26 50.45310 5.45758 31196 ft 442 kts 229°
2026-05-01 09:26 50.41398 5.38363 31627 ft 445 kts 229°
2026-05-01 09:26 50.39390 5.34570 31836 ft 447 kts 229°
2026-05-01 09:27 50.35414 5.27056 32243 ft 450 kts 229°
2026-05-01 09:27 50.33412 5.23282 32459 ft 451 kts 229°
2026-05-01 09:27 50.31400 5.19506 32659 ft 452 kts 229°
2026-05-01 09:28 50.29383 5.15728 32870 ft 453 kts 229°
2026-05-01 09:28 50.27362 5.11952 33085 ft 454 kts 229°
2026-05-01 09:28 50.25329 5.08156 33299 ft 455 kts 229°
2026-05-01 09:28 50.23304 5.04371 33516 ft 455 kts 229°
2026-05-01 09:29 50.19240 4.96794 33951 ft 456 kts 229°
2026-05-01 09:29 50.17223 4.93051 34173 ft 456 kts 229°
2026-05-01 09:30 50.13129 4.85465 34433 ft 459 kts 228°
2026-05-01 09:30 50.11065 4.81648 34561 ft 461 kts 228°
2026-05-01 09:30 50.06962 4.74060 34794 ft 457 kts 228°
2026-05-01 09:31 50.04915 4.70277 34926 ft 457 kts 228°
2026-05-01 09:31 50.02864 4.66500 35042 ft 458 kts 228°
2026-05-01 09:31 49.98738 4.58951 35295 ft 459 kts 228°
2026-05-01 09:32 49.96657 4.55195 35468 ft 459 kts 226°
2026-05-01 09:32 49.92323 4.47941 35878 ft 457 kts 224°
2026-05-01 09:32 49.90111 4.44416 36078 ft 456 kts 224°
2026-05-01 09:33 49.87893 4.40911 36284 ft 454 kts 224°
2026-05-01 09:33 49.85694 4.37418 36482 ft 453 kts 224°
2026-05-01 09:33 49.81336 4.30407 36907 ft 450 kts 224°
2026-05-01 09:34 49.79178 4.26902 37120 ft 449 kts 225°
2026-05-01 09:34 49.77030 4.23410 37329 ft 447 kts 224°
2026-05-01 09:34 49.72742 4.16458 37644 ft 447 kts 224°
2026-05-01 09:35 49.70593 4.12989 37756 ft 447 kts 224°
2026-05-01 09:35 49.66270 4.06044 37920 ft 449 kts 224°
2026-05-01 09:36 49.61933 3.99091 38086 ft 451 kts 224°
2026-05-01 09:36 49.59764 3.95623 38242 ft 450 kts 224°
2026-05-01 09:36 49.57581 3.92139 38278 ft 452 kts 224°
2026-05-01 09:37 49.53195 3.85146 38272 ft 457 kts 224°
2026-05-01 09:37 49.46523 3.74536 38266 ft 462 kts 224°
2026-05-01 09:38 49.39803 3.63927 38262 ft 462 kts 224°
2026-05-01 09:39 49.33114 3.53391 38262 ft 462 kts 224°
2026-05-01 09:39 49.28626 3.46340 38268 ft 462 kts 224°
2026-05-01 09:40 49.21894 3.35798 38271 ft 462 kts 224°
2026-05-01 09:41 49.17394 3.28790 38271 ft 462 kts 223°
2026-05-01 09:41 49.10649 3.18309 38270 ft 462 kts 223°
2026-05-01 09:42 49.06137 3.11326 38272 ft 462 kts 223°
2026-05-01 09:43 48.97867 2.98566 38271 ft 462 kts 223°
2026-05-01 09:43 48.93301 2.91539 38270 ft 462 kts 223°
2026-05-01 09:44 48.86504 2.81142 38269 ft 462 kts 223°
2026-05-01 09:45 48.82046 2.74116 38266 ft 463 kts 230°
2026-05-01 09:45 48.76510 2.62053 38261 ft 465 kts 233°
2026-05-01 09:46 48.72833 2.53978 38274 ft 465 kts 233°
2026-05-01 09:46 48.69151 2.45917 38300 ft 467 kts 233°
2026-05-01 09:47 48.65476 2.37881 38247 ft 465 kts 233°
2026-05-01 09:47 48.61772 2.29826 38248 ft 466 kts 233°
2026-05-01 09:48 48.57581 2.22437 38245 ft 462 kts 217°
2026-05-01 09:48 48.54938 2.19706 38249 ft 459 kts 206°
2026-05-01 09:48 48.52034 2.17804 38243 ft 456 kts 195°
2026-05-01 09:49 48.45937 2.15073 38248 ft 457 kts 195°
2026-05-01 09:49 48.39843 2.12305 38253 ft 457 kts 195°
2026-05-01 09:50 48.33750 2.09556 38265 ft 457 kts 195°
2026-05-01 09:50 48.30698 2.08190 38376 ft 455 kts 195°
2026-05-01 09:50 48.27674 2.06842 38551 ft 453 kts 195°
2026-05-01 09:51 48.24666 2.05509 38718 ft 451 kts 195°
2026-05-01 09:51 48.21657 2.04177 38876 ft 450 kts 195°
2026-05-01 09:51 48.18654 2.02850 39006 ft 449 kts 195°
2026-05-01 09:51 48.15660 2.01528 39140 ft 447 kts 195°
2026-05-01 09:52 48.09696 1.98901 39248 ft 448 kts 195°
2026-05-01 09:52 48.03680 1.96252 39244 ft 452 kts 195°
2026-05-01 09:53 47.97630 1.93592 39244 ft 456 kts 195°
2026-05-01 09:53 47.91515 1.90907 39245 ft 459 kts 196°
2026-05-01 09:54 47.88566 1.89128 39242 ft 460 kts 209°
2026-05-01 09:54 47.85801 1.86708 39247 ft 461 kts 210°
2026-05-01 09:54 47.80300 1.81790 39246 ft 461 kts 210°
2026-05-01 09:55 47.74811 1.76864 39246 ft 461 kts 210°
2026-05-01 09:55 47.69302 1.71964 39245 ft 461 kts 210°
2026-05-01 09:56 47.63805 1.67096 39242 ft 461 kts 210°
2026-05-01 09:56 47.58302 1.62220 39243 ft 461 kts 210°
2026-05-01 09:57 47.52794 1.57349 39245 ft 461 kts 210°
2026-05-01 09:57 47.47315 1.52529 39244 ft 462 kts 210°
2026-05-01 09:58 47.41755 1.47649 39245 ft 462 kts 210°
2026-05-01 09:58 47.36237 1.42812 39246 ft 462 kts 210°
2026-05-01 09:59 47.30708 1.37981 39244 ft 461 kts 210°
2026-05-01 09:59 47.25218 1.33202 39242 ft 461 kts 210°
2026-05-01 10:00 47.19693 1.28392 39244 ft 461 kts 210°
2026-05-01 10:00 47.14134 1.23561 39240 ft 462 kts 210°
2026-05-01 10:01 47.08599 1.18784 39239 ft 461 kts 210°
2026-05-01 10:01 47.04000 1.14815 39237 ft 461 kts 210°
2026-05-01 10:02 46.98467 1.10047 39238 ft 461 kts 211°
2026-05-01 10:02 46.92942 1.05291 39235 ft 461 kts 211°
2026-05-01 10:03 46.87413 1.00549 39244 ft 461 kts 211°
2026-05-01 10:03 46.81882 0.95822 39240 ft 461 kts 211°
2026-05-01 10:04 46.76345 0.91098 39238 ft 461 kts 211°
2026-05-01 10:04 46.70810 0.86392 39241 ft 461 kts 211°
2026-05-01 10:05 46.65261 0.81684 39241 ft 461 kts 211°
2026-05-01 10:05 46.59713 0.76983 39243 ft 461 kts 211°
2026-05-01 10:06 46.54200 0.72323 39246 ft 461 kts 211°
2026-05-01 10:06 46.48614 0.67606 39247 ft 461 kts 211°
2026-05-01 10:07 46.43101 0.62964 39249 ft 461 kts 211°
2026-05-01 10:07 46.37545 0.58297 39244 ft 461 kts 211°
2026-05-01 10:08 46.29211 0.51330 39244 ft 461 kts 211°
2026-05-01 10:09 46.23654 0.46704 39237 ft 461 kts 211°
2026-05-01 10:09 46.18110 0.42092 39242 ft 460 kts 211°
2026-05-01 10:10 46.12552 0.37477 39245 ft 460 kts 211°
2026-05-01 10:10 46.04223 0.30581 39239 ft 460 kts 211°
2026-05-01 10:11 45.98675 0.25990 39242 ft 460 kts 211°
2026-05-01 10:11 45.93094 0.21392 39242 ft 460 kts 211°
2026-05-01 10:12 45.87576 0.16865 39245 ft 459 kts 211°
2026-05-01 10:13 45.79273 0.10067 39246 ft 458 kts 211°
2026-05-01 10:13 45.73741 0.05538 39246 ft 458 kts 211°
2026-05-01 10:14 45.65434 -0.01221 39245 ft 457 kts 211°
2026-05-01 10:14 45.59897 -0.05715 39242 ft 457 kts 210°
2026-05-01 10:15 45.54367 -0.10193 39238 ft 457 kts 210°
2026-05-01 10:15 45.48831 -0.14669 39228 ft 457 kts 210°
2026-05-01 10:16 45.43293 -0.19140 39228 ft 457 kts 210°
2026-05-01 10:17 45.34998 -0.25807 39228 ft 457 kts 210°
2026-05-01 10:17 45.26703 -0.32466 39229 ft 457 kts 210°
2026-05-01 10:18 45.18402 -0.39104 39225 ft 456 kts 210°
2026-05-01 10:19 45.12871 -0.43498 39221 ft 456 kts 210°
2026-05-01 10:19 45.07327 -0.47897 39220 ft 456 kts 210°
2026-05-01 10:20 44.99015 -0.54493 39220 ft 456 kts 210°
2026-05-01 10:20 44.93479 -0.58864 39220 ft 456 kts 210°
2026-05-01 10:21 44.85171 -0.65403 39218 ft 455 kts 210°
2026-05-01 10:22 44.76888 -0.71924 39220 ft 454 kts 210°
2026-05-01 10:23 44.68604 -0.78405 39219 ft 454 kts 210°
2026-05-01 10:23 44.60326 -0.84872 39215 ft 454 kts 210°
2026-05-01 10:24 44.49271 -0.93469 39200 ft 454 kts 210°
2026-05-01 10:25 44.38190 -1.02035 39193 ft 455 kts 210°
2026-05-01 10:26 44.32646 -1.06310 39190 ft 455 kts 210°
2026-05-01 10:27 44.21550 -1.14843 39195 ft 455 kts 210°
2026-05-01 10:28 44.13228 -1.21230 39196 ft 455 kts 210°
2026-05-01 10:28 44.04895 -1.27584 39200 ft 455 kts 210°
2026-05-01 10:29 43.96561 -1.33927 39206 ft 455 kts 210°
2026-05-01 10:30 43.85455 -1.42358 39200 ft 455 kts 210°
2026-05-01 10:31 43.74357 -1.50742 39194 ft 454 kts 210°
2026-05-01 10:32 43.66024 -1.57000 39191 ft 454 kts 210°
2026-05-01 10:33 43.54919 -1.65310 39188 ft 454 kts 210°
2026-05-01 10:34 43.46600 -1.71529 39166 ft 453 kts 210°
2026-05-01 10:34 43.41059 -1.75661 39169 ft 453 kts 210°
2026-05-01 10:35 43.32811 -1.81955 39164 ft 451 kts 217°
2026-05-01 10:35 43.28396 -1.87961 39164 ft 447 kts 234°
2026-05-01 10:36 43.22781 -1.98170 39170 ft 447 kts 234°
2026-05-01 10:37 43.19018 -2.04959 39176 ft 447 kts 234°
2026-05-01 10:37 43.13384 -2.15109 39175 ft 447 kts 234°
2026-05-01 10:38 43.09622 -2.21884 39175 ft 446 kts 234°
2026-05-01 10:38 43.05859 -2.28637 39176 ft 446 kts 234°
2026-05-01 10:39 43.02090 -2.35371 39175 ft 446 kts 234°
2026-05-01 10:39 42.98326 -2.42087 39180 ft 445 kts 234°
2026-05-01 10:40 42.94562 -2.48785 39183 ft 444 kts 234°
2026-05-01 10:40 42.90794 -2.55466 39190 ft 443 kts 234°
2026-05-01 10:41 42.87033 -2.62122 39194 ft 443 kts 234°
2026-05-01 10:42 42.81406 -2.72090 39194 ft 442 kts 234°
2026-05-01 10:42 42.77654 -2.78706 39190 ft 441 kts 234°
2026-05-01 10:43 42.73892 -2.85309 39187 ft 440 kts 234°
2026-05-01 10:43 42.70169 -2.91914 39184 ft 440 kts 235°
2026-05-01 10:44 42.67090 -2.97475 39177 ft 439 kts 235°
2026-05-01 10:44 42.63417 -3.04111 39166 ft 439 kts 235°
2026-05-01 10:45 42.59729 -3.10724 39163 ft 439 kts 235°
2026-05-01 10:45 42.56035 -3.17315 39162 ft 438 kts 235°
2026-05-01 10:46 42.52350 -3.23890 39167 ft 438 kts 235°
2026-05-01 10:46 42.48688 -3.30413 39172 ft 437 kts 235°
2026-05-01 10:47 42.44976 -3.36999 39177 ft 437 kts 235°
2026-05-01 10:47 42.41287 -3.43520 39186 ft 436 kts 235°
2026-05-01 10:48 42.37603 -3.50034 39192 ft 435 kts 235°
2026-05-01 10:48 42.33926 -3.56529 39193 ft 435 kts 235°
2026-05-01 10:49 42.30243 -3.63008 39191 ft 435 kts 234°
2026-05-01 10:49 42.26571 -3.69434 39189 ft 434 kts 234°
2026-05-01 10:50 42.22884 -3.75879 39180 ft 434 kts 234°
2026-05-01 10:50 42.19204 -3.82313 39177 ft 433 kts 234°
2026-05-01 10:51 42.15520 -3.88744 39167 ft 433 kts 234°
2026-05-01 10:51 42.11830 -3.95175 39161 ft 433 kts 234°
2026-05-01 10:52 42.08140 -4.01582 39156 ft 433 kts 234°
2026-05-01 10:52 42.04454 -4.07966 39160 ft 432 kts 234°
2026-05-01 10:53 42.00294 -4.13825 39159 ft 435 kts 224°
2026-05-01 10:53 41.95727 -4.19176 39171 ft 435 kts 224°
2026-05-01 10:54 41.91163 -4.24505 39159 ft 435 kts 224°
2026-05-01 10:54 41.86600 -4.29831 39170 ft 435 kts 224°
2026-05-01 10:55 41.82039 -4.35152 39171 ft 434 kts 224°
2026-05-01 10:55 41.77472 -4.40462 39168 ft 434 kts 224°
2026-05-01 10:56 41.72917 -4.45753 39170 ft 433 kts 224°
2026-05-01 10:56 41.68363 -4.51036 39174 ft 433 kts 223°
2026-05-01 10:57 41.63804 -4.56310 39172 ft 433 kts 223°
2026-05-01 10:57 41.59258 -4.61565 39167 ft 432 kts 223°
2026-05-01 10:58 41.54706 -4.66816 39179 ft 432 kts 223°
2026-05-01 10:58 41.50161 -4.72041 39173 ft 432 kts 223°
2026-05-01 10:59 41.45616 -4.77260 39173 ft 431 kts 223°
2026-05-01 10:59 41.41056 -4.82472 39174 ft 431 kts 223°
2026-05-01 11:00 41.36498 -4.87671 39172 ft 431 kts 223°
2026-05-01 11:00 41.31942 -4.92871 39177 ft 431 kts 223°
2026-05-01 11:01 41.27390 -4.98066 39171 ft 431 kts 223°
2026-05-01 11:01 41.22839 -5.03247 39170 ft 431 kts 223°
2026-05-01 11:02 41.18288 -5.08412 39169 ft 430 kts 223°
2026-05-01 11:02 41.13733 -5.13561 39172 ft 430 kts 222°
2026-05-01 11:03 41.09176 -5.18708 39181 ft 430 kts 222°
2026-05-01 11:03 41.04625 -5.23849 39185 ft 429 kts 222°
2026-05-01 11:04 41.00075 -5.28971 39186 ft 430 kts 222°
2026-05-01 11:04 40.95517 -5.34096 39191 ft 430 kts 222°
2026-05-01 11:05 40.90951 -5.39216 39192 ft 430 kts 222°
2026-05-01 11:05 40.86384 -5.44321 39192 ft 430 kts 222°
2026-05-01 11:06 40.81820 -5.49429 39188 ft 430 kts 222°
2026-05-01 11:06 40.77251 -5.54531 39183 ft 430 kts 221°
2026-05-01 11:07 40.70389 -5.62156 39178 ft 431 kts 221°
2026-05-01 11:07 40.65801 -5.67251 39173 ft 431 kts 221°
2026-05-01 11:08 40.61221 -5.72333 39175 ft 431 kts 221°
2026-05-01 11:09 40.54333 -5.79934 39171 ft 431 kts 221°
2026-05-01 11:09 40.49737 -5.84994 39168 ft 431 kts 221°
2026-05-01 11:10 40.42838 -5.92594 39168 ft 431 kts 221°
2026-05-01 11:10 40.38244 -5.97646 39174 ft 431 kts 221°
2026-05-01 11:11 40.33629 -6.02695 39167 ft 432 kts 221°
2026-05-01 11:11 40.29025 -6.07735 39169 ft 432 kts 221°
2026-05-01 11:12 40.24412 -6.12777 39167 ft 432 kts 220°
2026-05-01 11:12 40.19798 -6.17810 39167 ft 432 kts 220°
2026-05-01 11:13 40.15174 -6.22834 39168 ft 432 kts 220°
2026-05-01 11:13 40.10547 -6.27863 39164 ft 433 kts 220°
2026-05-01 11:14 40.05913 -6.32887 39165 ft 433 kts 220°
2026-05-01 11:14 40.01280 -6.37898 39164 ft 433 kts 220°
2026-05-01 11:15 39.96642 -6.42901 39167 ft 433 kts 220°
2026-05-01 11:15 39.92126 -6.47780 39165 ft 433 kts 220°
2026-05-01 11:16 39.87479 -6.52785 39162 ft 433 kts 220°
2026-05-01 11:16 39.82827 -6.57770 39160 ft 433 kts 220°
2026-05-01 11:17 39.78175 -6.62754 39159 ft 433 kts 220°
2026-05-01 11:17 39.73521 -6.67729 39161 ft 433 kts 220°
2026-05-01 11:18 39.68858 -6.72703 39161 ft 433 kts 220°
2026-05-01 11:18 39.64235 -6.77639 39161 ft 433 kts 220°
2026-05-01 11:19 39.59573 -6.82599 39163 ft 433 kts 220°
2026-05-01 11:19 39.54919 -6.87547 39160 ft 433 kts 220°
2026-05-01 11:20 39.50261 -6.92492 39162 ft 433 kts 220°
2026-05-01 11:20 39.45597 -6.97424 39157 ft 432 kts 220°
2026-05-01 11:21 39.40940 -7.02342 39158 ft 432 kts 220°
2026-05-01 11:21 39.36284 -7.07257 39156 ft 432 kts 220°
2026-05-01 11:22 39.31626 -7.12163 39162 ft 432 kts 220°
2026-05-01 11:22 39.26967 -7.17063 39162 ft 432 kts 220°
2026-05-01 11:23 39.22283 -7.21910 39160 ft 432 kts 216°
2026-05-01 11:23 39.17044 -7.25760 39157 ft 434 kts 210°
2026-05-01 11:24 39.11731 -7.29430 39156 ft 433 kts 210°
2026-05-01 11:25 39.03757 -7.34928 39158 ft 433 kts 210°
2026-05-01 11:25 38.95795 -7.40419 39161 ft 433 kts 211°
2026-05-01 11:26 38.88698 -7.45310 39156 ft 432 kts 211°
2026-05-01 11:27 38.83436 -7.48925 39157 ft 432 kts 211°
2026-05-01 11:27 38.78135 -7.52556 39154 ft 432 kts 211°
2026-05-01 11:28 38.72837 -7.56180 39156 ft 432 kts 211°
2026-05-01 11:28 38.67533 -7.59802 39091 ft 431 kts 213°
2026-05-01 11:29 38.59676 -7.65156 39157 ft 424 kts 215°
2026-05-01 11:30 38.51879 -7.70463 39166 ft 422 kts 215°
2026-05-01 11:30 38.46699 -7.73979 39166 ft 422 kts 215°
2026-05-01 11:31 38.41517 -7.77483 39167 ft 421 kts 215°
2026-05-01 11:31 38.36347 -7.80975 39168 ft 420 kts 216°
2026-05-01 11:32 38.31197 -7.84466 39168 ft 419 kts 216°
2026-05-01 11:32 38.26037 -7.87949 39169 ft 419 kts 215°
2026-05-01 11:33 38.20883 -7.91412 39165 ft 419 kts 216°
2026-05-01 11:33 38.15729 -7.94873 39166 ft 418 kts 216°
2026-05-01 11:34 38.10582 -7.98320 39164 ft 418 kts 216°
2026-05-01 11:34 38.05448 -8.01766 39168 ft 417 kts 216°
2026-05-01 11:35 38.00313 -8.05204 39167 ft 417 kts 216°
2026-05-01 11:35 37.95182 -8.08635 39165 ft 417 kts 216°
2026-05-01 11:36 37.90062 -8.12050 39172 ft 416 kts 215°
2026-05-01 11:36 37.84942 -8.15454 39164 ft 415 kts 215°
2026-05-01 11:37 37.79825 -8.18842 39176 ft 415 kts 215°
2026-05-01 11:37 37.74710 -8.22240 39176 ft 415 kts 216°
2026-05-01 11:38 37.69602 -8.25638 39187 ft 415 kts 215°
2026-05-01 11:38 37.64501 -8.29008 39171 ft 414 kts 215°
2026-05-01 11:39 37.59390 -8.32379 39165 ft 414 kts 215°
2026-05-01 11:39 37.54291 -8.35736 39180 ft 413 kts 215°
2026-05-01 11:40 37.49201 -8.39096 39181 ft 413 kts 215°
2026-05-01 11:40 37.44101 -8.42451 39180 ft 413 kts 215°
2026-05-01 11:41 37.39005 -8.45784 39179 ft 413 kts 215°
2026-05-01 11:41 37.33911 -8.49118 39183 ft 412 kts 215°
2026-05-01 11:42 37.28830 -8.52447 39185 ft 412 kts 215°
2026-05-01 11:42 37.23744 -8.55770 39183 ft 412 kts 215°
2026-05-01 11:43 37.18650 -8.59099 39186 ft 412 kts 215°
2026-05-01 11:43 37.13567 -8.62412 39186 ft 412 kts 215°
2026-05-01 11:44 37.05934 -8.67376 39188 ft 412 kts 215°
2026-05-01 11:44 37.00847 -8.70670 39189 ft 412 kts 214°
2026-05-01 11:45 36.95765 -8.73962 39192 ft 411 kts 214°
2026-05-01 11:45 36.90678 -8.77247 39195 ft 411 kts 214°
2026-05-01 11:46 36.85595 -8.80532 39198 ft 411 kts 214°
2026-05-01 11:46 36.80518 -8.83813 39197 ft 411 kts 214°
2026-05-01 11:47 36.75437 -8.87088 39198 ft 411 kts 214°
2026-05-01 11:47 36.70393 -8.90332 39197 ft 411 kts 214°
2026-05-01 11:48 36.65309 -8.93588 39196 ft 411 kts 214°
2026-05-01 11:48 36.60213 -8.96851 39200 ft 412 kts 214°
2026-05-01 11:49 36.55120 -9.00115 39202 ft 412 kts 214°
2026-05-01 11:49 36.49992 -9.03404 39200 ft 412 kts 214°
2026-05-01 11:50 36.44920 -9.06643 39201 ft 413 kts 214°
2026-05-01 11:50 36.39772 -9.09929 39203 ft 413 kts 214°
2026-05-01 11:51 36.34691 -9.13165 39200 ft 414 kts 213°
2026-05-01 11:51 36.29567 -9.16419 39205 ft 414 kts 213°
2026-05-01 11:52 36.24436 -9.19668 39202 ft 414 kts 213°
2026-05-01 11:52 36.19304 -9.22922 39198 ft 415 kts 213°
2026-05-01 11:53 36.14166 -9.26175 39196 ft 415 kts 213°
2026-05-01 11:53 36.09025 -9.29415 39202 ft 415 kts 213°
2026-05-01 11:54 36.03877 -9.32663 39202 ft 416 kts 213°
2026-05-01 11:54 35.98718 -9.35910 39201 ft 416 kts 213°
2026-05-01 11:55 35.93541 -9.39108 39200 ft 417 kts 212°
2026-05-01 11:55 35.88262 -9.42201 39200 ft 418 kts 211°
2026-05-01 11:56 35.83031 -9.45233 39201 ft 418 kts 212°
2026-05-01 11:56 35.77777 -9.48307 39202 ft 418 kts 212°
2026-05-01 11:57 35.73375 -9.50896 39199 ft 419 kts 212°
2026-05-01 11:57 35.67259 -9.54476 39204 ft 419 kts 212°
2026-05-01 11:58 35.61999 -9.57558 39203 ft 420 kts 212°
2026-05-01 11:59 35.54072 -9.62184 39204 ft 420 kts 211°
2026-05-01 11:59 35.48786 -9.65252 39203 ft 421 kts 211°
2026-05-01 12:00 35.40845 -9.69872 39203 ft 421 kts 211°
2026-05-01 12:01 35.32904 -9.74481 39200 ft 421 kts 211°
2026-05-01 12:01 35.27600 -9.77555 39202 ft 421 kts 211°
2026-05-01 12:02 35.22300 -9.80620 39203 ft 422 kts 211°
2026-05-01 12:02 35.16994 -9.83688 39200 ft 422 kts 211°
2026-05-01 12:03 35.11680 -9.86748 39205 ft 422 kts 211°
2026-05-01 12:03 35.06368 -9.89806 39207 ft 422 kts 211°
2026-05-01 12:04 35.01057 -9.92863 39200 ft 423 kts 211°
2026-05-01 12:04 34.95732 -9.95914 39203 ft 423 kts 211°
2026-05-01 12:05 34.90412 -9.98970 39201 ft 423 kts 211°
2026-05-01 12:05 34.82415 -10.03557 39199 ft 424 kts 211°
2026-05-01 12:06 34.77080 -10.06604 39196 ft 424 kts 211°
2026-05-01 12:06 34.71732 -10.09642 39203 ft 424 kts 211°
2026-05-01 12:07 34.66384 -10.12682 39198 ft 424 kts 211°
2026-05-01 12:07 34.61039 -10.15743 39198 ft 425 kts 211°
2026-05-01 12:08 34.56593 -10.18271 39198 ft 425 kts 211°
2026-05-01 12:08 34.51231 -10.21301 39197 ft 425 kts 211°
2026-05-01 12:09 34.45861 -10.24346 39203 ft 426 kts 211°
2026-05-01 12:09 34.40503 -10.27380 39196 ft 426 kts 211°
2026-05-01 12:10 34.32443 -10.31932 39196 ft 426 kts 211°
2026-05-01 12:11 34.24377 -10.36468 39198 ft 426 kts 211°
2026-05-01 12:11 34.18997 -10.39490 39198 ft 427 kts 211°
2026-05-01 12:12 34.13612 -10.42517 39200 ft 427 kts 211°
2026-05-01 12:12 34.08229 -10.45542 39194 ft 427 kts 211°
2026-05-01 12:13 34.02840 -10.48561 39197 ft 427 kts 211°
2026-05-01 12:13 33.97445 -10.51576 39198 ft 427 kts 211°
2026-05-01 12:14 33.92050 -10.54591 39194 ft 428 kts 211°
2026-05-01 12:14 33.86654 -10.57600 39197 ft 428 kts 211°
2026-05-01 12:15 33.81252 -10.60615 39194 ft 428 kts 211°
2026-05-01 12:15 33.75844 -10.63617 39194 ft 428 kts 211°
2026-05-01 12:16 33.70430 -10.66622 39195 ft 428 kts 211°
2026-05-01 12:16 33.65016 -10.69627 39192 ft 428 kts 211°
2026-05-01 12:17 33.59606 -10.72625 39195 ft 429 kts 211°
2026-05-01 12:17 33.54191 -10.75622 39191 ft 429 kts 211°
2026-05-01 12:18 33.48774 -10.78622 39191 ft 429 kts 211°
2026-05-01 12:18 33.43351 -10.81611 39190 ft 429 kts 211°
2026-05-01 12:19 33.37934 -10.84604 39188 ft 429 kts 211°
2026-05-01 12:19 33.32501 -10.87590 39191 ft 430 kts 211°
2026-05-01 12:20 33.27065 -10.90562 39191 ft 430 kts 211°
2026-05-01 12:20 33.21630 -10.93539 39189 ft 430 kts 211°
2026-05-01 12:21 33.16190 -10.96519 39187 ft 430 kts 211°
2026-05-01 12:21 33.10754 -10.99493 39188 ft 430 kts 211°
2026-05-01 12:22 33.05315 -11.02468 39190 ft 430 kts 211°
2026-05-01 12:22 32.99869 -11.05436 39189 ft 430 kts 211°
2026-05-01 12:23 32.94419 -11.08406 39190 ft 431 kts 211°
2026-05-01 12:23 32.88969 -11.11375 39188 ft 431 kts 211°
2026-05-01 12:24 32.83519 -11.14336 39190 ft 431 kts 211°
2026-05-01 12:24 32.78065 -11.17295 39190 ft 431 kts 211°
2026-05-01 12:25 32.69883 -11.21724 39190 ft 431 kts 211°
2026-05-01 12:26 32.64426 -11.24675 39190 ft 431 kts 211°
2026-05-01 12:26 32.56236 -11.29089 39187 ft 431 kts 211°
2026-05-01 12:27 32.48037 -11.33510 39179 ft 431 kts 211°
2026-05-01 12:28 32.39834 -11.37920 39187 ft 432 kts 211°
2026-05-01 12:29 32.31619 -11.42328 39191 ft 432 kts 211°
2026-05-01 12:29 32.23403 -11.46739 39184 ft 433 kts 211°
2026-05-01 12:30 32.15168 -11.51139 39188 ft 433 kts 211°
2026-05-01 12:31 32.09675 -11.54065 39187 ft 434 kts 211°
2026-05-01 12:31 32.04181 -11.56999 39181 ft 434 kts 211°
2026-05-01 12:32 31.98682 -11.59932 39186 ft 434 kts 210°
2026-05-01 12:32 31.90447 -11.64299 39189 ft 435 kts 210°
2026-05-01 12:33 31.84931 -11.67219 39186 ft 435 kts 210°
2026-05-01 12:33 31.79415 -11.70146 39192 ft 435 kts 210°
2026-05-01 12:34 31.73896 -11.73070 39187 ft 435 kts 210°
2026-05-01 12:34 31.68375 -11.75993 39186 ft 436 kts 210°
2026-05-01 12:35 31.62844 -11.78907 39192 ft 436 kts 210°
2026-05-01 12:35 31.57301 -11.81812 39186 ft 436 kts 210°
2026-05-01 12:36 31.51771 -11.84725 39189 ft 436 kts 210°
2026-05-01 12:36 31.46233 -11.87639 39183 ft 436 kts 210°
2026-05-01 12:37 31.40695 -11.90555 39184 ft 436 kts 210°
2026-05-01 12:37 31.35146 -11.93458 39181 ft 437 kts 210°
2026-05-01 12:38 31.29596 -11.96357 39182 ft 437 kts 210°
2026-05-01 12:38 31.24051 -11.99255 39183 ft 437 kts 210°
2026-05-01 12:39 31.18502 -12.02156 39181 ft 437 kts 210°
2026-05-01 12:39 31.12956 -12.05049 39190 ft 437 kts 210°
2026-05-01 12:40 31.07403 -12.07945 39178 ft 437 kts 210°
2026-05-01 12:40 31.01856 -12.10838 39189 ft 437 kts 210°
2026-05-01 12:41 30.96304 -12.13718 39181 ft 437 kts 210°
2026-05-01 12:41 30.90749 -12.16597 39183 ft 437 kts 210°
2026-05-01 12:42 30.85190 -12.19475 39182 ft 438 kts 210°
2026-05-01 12:42 30.79621 -12.22360 39186 ft 438 kts 210°
2026-05-01 12:43 30.74052 -12.25240 39185 ft 438 kts 209°
2026-05-01 12:43 30.68483 -12.28112 39185 ft 438 kts 209°
2026-05-01 12:44 30.62906 -12.30985 39183 ft 439 kts 209°
2026-05-01 12:45 30.51761 -12.36732 39185 ft 433 kts 212°
2026-05-01 12:45 30.46831 -12.40561 38953 ft 427 kts 221°
2026-05-01 12:46 30.44451 -12.42622 38270 ft 427 kts 221°
2026-05-01 12:46 30.42066 -12.44670 37596 ft 426 kts 221°
2026-05-01 12:46 30.39686 -12.46705 36937 ft 425 kts 220°
2026-05-01 12:46 30.37308 -12.48737 36293 ft 424 kts 220°
2026-05-01 12:47 30.34936 -12.50764 35672 ft 423 kts 220°
2026-05-01 12:47 30.32569 -12.52787 35067 ft 422 kts 220°
2026-05-01 12:47 30.30211 -12.54803 34474 ft 421 kts 220°
2026-05-01 12:47 30.27869 -12.56808 33851 ft 419 kts 220°
2026-05-01 12:48 30.25527 -12.58816 33195 ft 418 kts 220°
2026-05-01 12:48 30.23188 -12.60818 32550 ft 417 kts 219°
2026-05-01 12:48 30.20862 -12.62805 31923 ft 415 kts 219°
2026-05-01 12:48 30.18540 -12.64787 31311 ft 414 kts 219°
2026-05-01 12:49 30.16227 -12.66762 30713 ft 413 kts 219°
2026-05-01 12:49 30.13916 -12.68734 30106 ft 412 kts 219°
2026-05-01 12:49 30.11615 -12.70700 29426 ft 411 kts 220°
2026-05-01 12:49 30.09510 -12.72886 28761 ft 406 kts 230°
2026-05-01 12:50 30.08268 -12.74491 28322 ft 404 kts 230°
2026-05-01 12:50 30.06400 -12.76907 27682 ft 402 kts 230°
2026-05-01 12:50 30.04538 -12.79310 27051 ft 400 kts 230°
2026-05-01 12:50 30.02690 -12.81689 26437 ft 398 kts 230°
2026-05-01 12:51 30.00846 -12.84058 25832 ft 396 kts 230°
2026-05-01 12:51 29.99016 -12.86409 25337 ft 391 kts 230°
2026-05-01 12:51 29.95440 -12.91012 24418 ft 380 kts 229°
2026-05-01 12:52 29.93687 -12.93266 23966 ft 375 kts 229°
2026-05-01 12:52 29.90046 -12.97446 22944 ft 368 kts 217°
2026-05-01 12:52 29.87824 -12.98904 22422 ft 368 kts 206°
2026-05-01 12:53 29.83015 -13.00813 21414 ft 363 kts 201°
2026-05-01 12:53 29.80630 -13.01737 20921 ft 361 kts 201°
2026-05-01 12:53 29.78260 -13.02658 20436 ft 358 kts 201°
2026-05-01 12:54 29.75900 -13.03574 19954 ft 356 kts 201°
2026-05-01 12:54 29.71229 -13.05385 19027 ft 352 kts 201°
2026-05-01 12:54 29.68911 -13.06285 18572 ft 351 kts 201°
2026-05-01 12:55 29.64305 -13.08066 17549 ft 348 kts 201°
2026-05-01 12:55 29.62011 -13.08948 17044 ft 347 kts 201°
2026-05-01 12:55 29.59725 -13.09826 16539 ft 346 kts 201°
2026-05-01 12:56 29.57445 -13.10704 16064 ft 345 kts 201°
2026-05-01 12:56 29.55182 -13.11578 15574 ft 344 kts 201°
2026-05-01 12:56 29.52914 -13.12453 15100 ft 343 kts 200°
2026-05-01 12:56 29.50649 -13.13323 14620 ft 342 kts 200°
2026-05-01 12:57 29.48398 -13.14188 14166 ft 341 kts 200°
2026-05-01 12:57 29.43915 -13.15911 13168 ft 339 kts 200°
2026-05-01 12:57 29.41679 -13.16769 12666 ft 337 kts 200°
2026-05-01 12:58 29.39461 -13.17618 12175 ft 336 kts 200°
2026-05-01 12:58 29.37251 -13.18465 11690 ft 334 kts 199°
2026-05-01 12:58 29.35044 -13.19288 11285 ft 331 kts 198°
2026-05-01 12:59 29.30800 -13.20664 11189 ft 302 kts 196°
2026-05-01 12:59 29.28815 -13.21273 11190 ft 292 kts 196°
2026-05-01 12:59 29.24910 -13.22482 11190 ft 289 kts 196°
2026-05-01 13:00 29.21043 -13.23730 11193 ft 289 kts 197°
2026-05-01 13:00 29.19125 -13.24379 11190 ft 282 kts 198°
2026-05-01 13:01 29.15381 -13.25652 10751 ft 280 kts 197°
2026-05-01 13:01 29.13511 -13.26282 10402 ft 280 kts 197°
2026-05-01 13:01 29.09780 -13.27540 9668 ft 280 kts 197°
2026-05-01 13:02 29.07911 -13.28171 9280 ft 279 kts 197°
2026-05-01 13:07 28.71010 -13.42587 3006 ft 244 kts 228°
2026-05-01 13:07 28.70170 -13.44229 3005 ft 239 kts 256°
2026-05-01 13:07 28.70058 -13.46080 3003 ft 233 kts 282°
2026-05-01 13:08 28.70580 -13.47805 3013 ft 230 kts 295°
2026-05-01 13:08 28.71210 -13.49485 3008 ft 230 kts 295°
2026-05-01 13:08 28.71836 -13.51161 3006 ft 230 kts 295°
2026-05-01 13:08 28.72461 -13.52843 3009 ft 230 kts 294°
2026-05-01 13:09 28.73085 -13.54521 3008 ft 230 kts 294°
2026-05-01 13:09 28.73709 -13.56206 3008 ft 231 kts 294°
2026-05-01 13:09 28.74333 -13.57890 3007 ft 231 kts 294°
2026-05-01 13:09 28.74953 -13.59570 3005 ft 227 kts 294°
2026-05-01 13:10 28.75557 -13.61213 3005 ft 223 kts 294°
2026-05-01 13:10 28.76151 -13.62828 3003 ft 218 kts 294°
2026-05-01 13:10 28.76726 -13.64393 3006 ft 210 kts 294°
2026-05-01 13:10 28.77368 -13.65867 3011 ft 205 kts 307°
2026-05-01 13:11 28.78336 -13.67006 2958 ft 195 kts 326°
2026-05-01 13:11 28.79511 -13.67694 2875 ft 187 kts 343°
2026-05-01 13:11 28.80771 -13.67924 2739 ft 181 kts
2026-05-01 13:11 28.81985 -13.67718 2561 ft 173 kts 17°
2026-05-01 13:12 28.83078 -13.67164 2340 ft 171 kts 26°
2026-05-01 13:12 28.84122 -13.66560 2113 ft 163 kts 26°
2026-05-01 13:12 28.85109 -13.65990 1894 ft 157 kts 26°
2026-05-01 13:12 28.86074 -13.65431 1692 ft 155 kts 27°
2026-05-01 13:13 28.87015 -13.64886 1485 ft 150 kts 27°
2026-05-01 13:13 28.87939 -13.64351 1284 ft 148 kts 27°
2026-05-01 13:13 28.88845 -13.63827 1088 ft 143 kts 27°
2026-05-01 13:13 28.89717 -13.63322 904 ft 139 kts 28°
2026-05-01 13:14 28.90573 -13.62826 719 ft 137 kts 29°
2026-05-01 13:14 28.91417 -13.62337 554 ft 136 kts 31°
2026-05-01 13:14 28.92261 -13.61849 373 ft 135 kts 31°
2026-05-01 13:14 28.93098 -13.61364 211 ft 135 kts 30°
2026-05-01 13:15 28.93926 -13.60882 63 ft 126 kts 28°
2026-05-01 13:15 28.94520 -13.60547 61 ft 45 kts 26°
2026-05-01 13:15 28.94754 -13.60408 61 ft 27 kts 26°
2026-05-01 13:15 28.94859 -13.60350 63 ft 17 kts 27°
2026-05-01 13:16 28.94983 -13.60274 61 ft 21 kts 30°
2026-05-01 13:16 28.95120 -13.60217 59 ft 18 kts
2026-05-01 13:16 28.95245 -13.60210 59 ft 17 kts
2026-05-01 13:17 28.95218 -13.60339 60 ft 9 kts 207°
2026-05-01 13:17 28.95163 -13.60370 57 ft 8 kts 207°
2026-05-01 13:18 28.95121 -13.60456 59 ft 8 kts 288°
2026-05-01 13:18 28.95137 -13.60521 59 ft 8 kts 261°
2026-05-01 13:18 28.95100 -13.60565 55 ft 7 kts 219°
2026-05-01 13:18 28.95093 -13.60610 62 ft 6 kts 286°
2026-05-01 13:19 28.95108 -13.60649 63 ft 5 kts 296°
2026-05-01 13:19 28.95118 -13.60671 56 ft 1 kts 296°
2026-05-01 13:19 28.95130 -13.60699 63 ft 0 kts 296°